When you browse on this site, cookies collect data to enhance your experience and personalize the content and advertising you see.
Visit our Privacy Policy to learn more. By continuing to use the site, you agree to this use of cookies and data.
  • In Romania
  • List of Countries
  • For 7 days
  • Water Temperature
  • Satellite Maps
  • Weather Map
  • Weather Widgets
  • user-avatar
    Login

    Hourly Weather Zbudovo

    Today, 19 February, Tuesday

    Time Temperature Precipitation Wind Pressure Humidity
    00:00 -9°C° 0 mm 3 mps 749 mmHg 82%
    01:00 -10°C° 0 mm 4 mps 748 mmHg 79%
    02:00 -8°C° 0 mm 5 mps 747 mmHg 76%
    03:00 -8°C° 0 mm 5 mps 746 mmHg 77%
    04:00 -8°C° 0 mm 5 mps 745 mmHg 77%
    05:00 -8°C° 0 mm 5 mps 744 mmHg 77%
    06:00 -8°C° 0 mm 5 mps 743 mmHg 78%
    07:00 -7°C° 0 mm 4 mps 743 mmHg 80%
    08:00 -7°C° 0 mm 4 mps 742 mmHg 81%
    09:00 -5°C° 0 mm 4 mps 742 mmHg 82%
    10:00 -4°C° 0 mm 5 mps 742 mmHg 83%
    11:00 -2°C° 0 mm 5 mps 741 mmHg 84%
    12:00 -1°C° 0 mm 5 mps 741 mmHg 85%
    13:00 -1°C° 0 mm 5 mps 741 mmHg 87%
    14:00 -1°C° 0 mm 4 mps 741 mmHg 88%
    15:00 -1°C° 0 mm 4 mps 740 mmHg 89%
    16:00 -1°C° 0 mm 4 mps 740 mmHg 89%
    17:00 -1°C° 0 mm 4 mps 740 mmHg 90%
    18:00 -1°C° 0 mm 4 mps 739 mmHg 90%
    19:00 -1°C° 0 mm 3 mps 738 mmHg 90%
    20:00 -1°C° 0 mm 3 mps 738 mmHg 91%
    21:00 -1°C° 0 mm 3 mps 737 mmHg 90%
    22:00 -2°C° 0 mm 4 mps 736 mmHg 90%
    23:00 -2°C° 0 mm 4 mps 736 mmHg 89%

    Tomorrow, 20 February, Wednesday

    Time Temperature Precipitation Wind Pressure Humidity
    00:00 -2°C° 0.1 mm 4 mps 735 mmHg 90%
    01:00 -1°C° 0.1 mm 4 mps 734 mmHg 90%
    02:00 -1°C° 0.1 mm 4 mps 734 mmHg 90%
    03:00 -1°C° 0.1 mm 4 mps 733 mmHg 90%
    04:00 -1°C° 0.1 mm 4 mps 732 mmHg 90%
    05:00 -1°C° 0.1 mm 4 mps 731 mmHg 89%
    06:00 -1°C° 0.2 mm 4 mps 731 mmHg 90%
    07:00 -1°C° 0.2 mm 4 mps 731 mmHg 92%
    08:00 -1°C° 0.2 mm 4 mps 731 mmHg 93%
    09:00 0°C° 0 mm 4 mps 731 mmHg 92%
    10:00 0°C° 0 mm 4 mps 731 mmHg 92%
    11:00 0°C° 0 mm 4 mps 731 mmHg 91%
    12:00 0°C° 0.1 mm 4 mps 731 mmHg 92%
    13:00 0°C° 0.1 mm 4 mps 731 mmHg 92%
    14:00 0°C° 0.1 mm 4 mps 731 mmHg 92%
    15:00 0°C° 0.1 mm 4 mps 731 mmHg 92%
    16:00 0°C° 0.1 mm 3 mps 731 mmHg 92%
    17:00 0°C° 0.1 mm 3 mps 731 mmHg 93%
    18:00 0°C° 0.2 mm 3 mps 730 mmHg 93%
    19:00 0°C° 0.2 mm 3 mps 730 mmHg 93%
    20:00 0°C° 0.2 mm 3 mps 730 mmHg 93%
    21:00 0°C° 0.1 mm 3 mps 730 mmHg 93%
    22:00 +1°C° 0.1 mm 2 mps 730 mmHg 94%
    23:00 -1°C° 0.1 mm 2 mps 730 mmHg 95%

    Day after tomorrow, 21 February, Thursday

    Time Temperature Precipitation Wind Pressure Humidity
    00:00 -1°C° 0.3 mm 2 mps 730 mmHg 95%
    01:00 -1°C° 0.3 mm 2 mps 730 mmHg 95%
    02:00 -1°C° 0.3 mm 2 mps 730 mmHg 96%
    03:00 -1°C° 0.5 mm 2 mps 730 mmHg 96%
    04:00 -1°C° 0.5 mm 2 mps 730 mmHg 96%
    05:00 -1°C° 0.5 mm 3 mps 731 mmHg 96%
    06:00 -2°C° 0.6 mm 3 mps 731 mmHg 94%
    07:00 -4°C° 0.6 mm 4 mps 732 mmHg 93%
    08:00 -6°C° 0.6 mm 5 mps 733 mmHg 91%
    09:00 -6°C° 0.2 mm 5 mps 734 mmHg 89%
    10:00 -8°C° 0.2 mm 6 mps 735 mmHg 88%
    11:00 -8°C° 0.2 mm 6 mps 736 mmHg 86%
    12:00 -9°C° 0.1 mm 6 mps 737 mmHg 84%
    13:00 -10°C° 0.1 mm 6 mps 738 mmHg 82%
    14:00 -11°C° 0.1 mm 6 mps 739 mmHg 81%
    15:00 -11°C° 0.1 mm 6 mps 740 mmHg 80%
    16:00 -12°C° 0.1 mm 6 mps 742 mmHg 80%
    17:00 -12°C° 0.1 mm 6 mps 743 mmHg 79%
    18:00 -12°C° 0.1 mm 6 mps 744 mmHg 78%
    19:00 -14°C° 0.1 mm 6 mps 744 mmHg 78%
    20:00 -14°C° 0.1 mm 6 mps 745 mmHg 77%
    21:00 -15°C° 0 mm 6 mps 746 mmHg 77%
    22:00 -15°C° 0 mm 6 mps 747 mmHg 77%
    23:00 -15°C° 0 mm 6 mps 747 mmHg 77%

    22 February, Friday

    Time Temperature Precipitation Wind Pressure Humidity
    00:00 -16°C° 0 mm 6 mps 748 mmHg 78%
    01:00 -16°C° 0 mm 6 mps 748 mmHg 79%
    02:00 -15°C° 0 mm 5 mps 749 mmHg 80%
    03:00 -15°C° 0 mm 5 mps 750 mmHg 80%
    04:00 -17°C° 0 mm 5 mps 750 mmHg 81%
    05:00 -17°C° 0 mm 5 mps 751 mmHg 81%
    06:00 -17°C° 0 mm 5 mps 751 mmHg 82%
    07:00 -17°C° 0 mm 5 mps 751 mmHg 83%
    08:00 -17°C° 0 mm 5 mps 752 mmHg 83%
    09:00 -15°C° 0 mm 5 mps 752 mmHg 81%
    10:00 -15°C° 0 mm 5 mps 752 mmHg 78%
    11:00 -15°C° 0 mm 6 mps 752 mmHg 75%
    12:00 -15°C° 0 mm 6 mps 753 mmHg 73%
    13:00 -14°C° 0 mm 6 mps 753 mmHg 71%
    14:00 -14°C° 0 mm 6 mps 753 mmHg 69%
    15:00 -15°C° 0 mm 6 mps 754 mmHg 71%
    16:00 -15°C° 0 mm 6 mps 754 mmHg 73%
    17:00 -16°C° 0 mm 6 mps 755 mmHg 75%
    18:00 -15°C° 0 mm 5 mps 755 mmHg 76%
    19:00 -15°C° 0 mm 5 mps 756 mmHg 77%
    20:00 -15°C° 0 mm 5 mps 756 mmHg 78%
    21:00 -17°C° 0 mm 5 mps 757 mmHg 79%
    22:00 -17°C° 0 mm 5 mps 757 mmHg 81%
    23:00 -16°C° 0 mm 4 mps 757 mmHg 82%

    23 February, Saturday

    Time Temperature Precipitation Wind Pressure Humidity
    00:00 -16°C° 0 mm 4 mps 758 mmHg 84%
    01:00 -16°C° 0 mm 4 mps 758 mmHg 85%
    02:00 -16°C° 0 mm 4 mps 758 mmHg 87%
    03:00 -17°C° 0 mm 4 mps 758 mmHg 88%
    04:00 -17°C° 0 mm 4 mps 758 mmHg 90%
    05:00 -17°C° 0 mm 3 mps 758 mmHg 91%
    06:00 -17°C° 0 mm 3 mps 759 mmHg 91%
    07:00 -17°C° 0 mm 3 mps 759 mmHg 91%
    08:00 -17°C° 0 mm 3 mps 759 mmHg 91%
    09:00 -15°C° 0 mm 2 mps 759 mmHg 89%
    10:00 -14°C° 0 mm 2 mps 759 mmHg 86%
    11:00 -12°C° 0 mm 2 mps 760 mmHg 83%
    12:00 -10°C° 0 mm 2 mps 759 mmHg 82%
    13:00 -10°C° 0 mm 2 mps 759 mmHg 81%
    14:00 -9°C° 0 mm 2 mps 759 mmHg 80%
    15:00 -9°C° 0 mm 2 mps 759 mmHg 83%
    16:00 -9°C° 0 mm 1 mps 759 mmHg 86%
    17:00 -9°C° 0 mm 1 mps 759 mmHg 90%
    18:00 -10°C° 0 mm 1 mps 759 mmHg 90%
    19:00 -10°C° 0 mm 1 mps 759 mmHg 90%
    20:00 -10°C° 0 mm 1 mps 759 mmHg 90%
    21:00 -12°C° 0 mm 2 mps 759 mmHg 89%
    22:00 -10°C° 0 mm 2 mps 759 mmHg 88%
    23:00 -10°C° 0 mm 2 mps 760 mmHg 88%

    24 February, Sunday

    Time Temperature Precipitation Wind Pressure Humidity
    00:00 -10°C° 0 mm 2 mps 759 mmHg 90%
    01:00 -12°C° 0 mm 2 mps 759 mmHg 92%
    02:00 -12°C° 0 mm 2 mps 759 mmHg 94%
    03:00 -12°C° 0 mm 2 mps 759 mmHg 95%
    04:00 -12°C° 0 mm 2 mps 759 mmHg 95%
    05:00 -12°C° 0 mm 2 mps 759 mmHg 96%
    06:00 -10°C° 0 mm 2 mps 759 mmHg 96%
    07:00 -10°C° 0 mm 2 mps 759 mmHg 95%
    08:00 -9°C° 0 mm 2 mps 759 mmHg 95%
    09:00 -8°C° 0 mm 2 mps 759 mmHg 93%
    10:00 -7°C° 0 mm 2 mps 759 mmHg 92%
    11:00 -7°C° 0 mm 3 mps 759 mmHg 90%
    12:00 -6°C° 0 mm 3 mps 758 mmHg 90%
    13:00 -6°C° 0 mm 3 mps 758 mmHg 90%
    14:00 -5°C° 0 mm 3 mps 757 mmHg 90%
    15:00 -5°C° 0 mm 3 mps 757 mmHg 90%
    16:00 -4°C° 0 mm 3 mps 757 mmHg 91%
    17:00 -4°C° 0 mm 3 mps 756 mmHg 92%
    18:00 -4°C° 0.1 mm 3 mps 756 mmHg 92%
    19:00 -4°C° 0.1 mm 3 mps 755 mmHg 93%
    20:00 -2°C° 0.1 mm 3 mps 755 mmHg 93%
    21:00 -3°C° 0.1 mm 4 mps 754 mmHg 93%
    22:00 -3°C° 0.1 mm 4 mps 753 mmHg 93%
    23:00 -3°C° 0.1 mm 4 mps 752 mmHg 93%
    Show more